Hourly Data Report for June 19, 2021

WRIGLEY A
NORTHWEST TERRITORIES
Current Station Operator: NAVCAN

63°12'35.000" N
123°26'12.000" W
149.70 m
2204005
YWY

Download Data

Hourly Data (June 2021)
Hourly Data Report for June 19, 2021
TIME
LST
Temp Definition
°C
Dew Point Definition
°C
Rel Hum Definition
%
Precip. Amount Definition
mm

Wind Dir Definition
10's deg

Wind Spd Definition
km/h
Visibility Definition
km
Stn Press Definition
kPa
Hmdx Definition


Wind Chill Definition


Weather Definition


00:00 16.0 4.3 45 LegendMM 17 5 LegendMM 99.77     LegendNANA
01:00 14.6 3.4 47 LegendMM 10 8 LegendMM 99.81     LegendNANA
02:00 14.8 2.5 43 LegendMM 7 8 LegendMM 99.86     LegendNANA
03:00 9.9 4.6 70 LegendMM 18 3 LegendMM 99.92     LegendNANA
04:00 7.4 4.0 79 LegendMM 6 2 LegendMM 99.97     LegendNANA
05:00 8.3 3.6 72 LegendMM 16 5 LegendMM 100.02     LegendNANA
06:00 10.6 5.1 69 LegendMM 11 4 LegendMM 100.06     LegendNANA
07:00 13.3 4.3 54 LegendMM 14 8 LegendMM 100.08     LegendNANA
08:00 14.6 3.7 48 LegendMM 15 7 LegendMM 100.09     LegendNANA
09:00 15.8 3.3 43 LegendMM 16 7 LegendMM 100.09     LegendNANA
10:00 17.1 3.5 40 LegendMM 17 8 LegendMM 100.06     LegendNANA
11:00 18.5 3.8 37 LegendMM 18 5 LegendMM 100.04     LegendNANA
12:00 19.4 4.8 38 LegendMM 21 6 LegendMM 100.05     LegendNANA
13:00 20.3 4.1 34 LegendMM 18 10 LegendMM 100.05     LegendNANA
14:00 21.0 4.1 33 LegendMM 16 9 LegendMM 100.02     LegendNANA
15:00 21.7 4.1 31 LegendMM 15 12 LegendMM 100.01     LegendNANA
16:00 22.2 3.9 30 LegendMM 16 15 LegendMM 100.00     LegendNANA
17:00 22.4 3.2 28 LegendMM 15 17 LegendMM 99.98     LegendNANA
18:00 22.5 3.1 28 LegendMM 12 9 LegendMM 99.96     LegendNANA
19:00 22.2 3.0 28 LegendMM 16 12 LegendMM 99.97     LegendNANA
20:00 21.6 2.6 28 LegendMM 13 12 LegendMM 99.97     LegendNANA
21:00 20.6 2.1 29 LegendMM 11 12 LegendMM 99.97     LegendNANA
22:00 18.8 2.5 33 LegendMM 11 6 LegendMM 99.98     LegendNANA
23:00 17.5 1.6 34 LegendMM 12 8 LegendMM 100.01     LegendNANA

Notes on Data Quality.

Legend

  • E = Estimated
  • M = Missing
  • NA = Not Available*
  • [empty] = Indicates an unobserved value
Date modified: